{"data":{"norad_id":62671,"epoch":"2026-09-22T19:59:22.861536Z","epoch_age_seconds":117998,"freshness":"FRESH","line1":"1 62671U 25009BQ  26265.83290349  .00001554  00000+0  72344-4 0  9995","line2":"2 62671  97.3919 342.6769 0005234  10.0428 350.0911 15.21398146151183","mean_motion":15.21398146,"eccentricity":0.0005234,"inclination_deg":97.3919,"raan_deg":342.6769,"arg_perigee_deg":10.0428,"mean_anomaly_deg":350.0911,"bstar":7.2344e-5,"rev_number":15118,"period_min":94.649780124025,"perigee_km":498.02157479345,"apogee_km":505.22330697617,"semimajor_km":6879.7594408848,"source":"CELESTRAK","updated_at":"2026-09-23T09:00:21.545625Z"}}